TimeEDT,TemperatureF,Dew PointF,Humidity,Sea Level PressureIn,VisibilityMPH,Wind Direction,Wind SpeedMPH,Gust SpeedMPH,PrecipitationIn,Events,Conditions,WindDirDegrees,DateUTC
12:53 AM,68.0,57.9,70,29.98,10.0,NNE,3.5,-,N/A,,Clear,30,2013-08-09 04:53:00
1:53 AM,66.9,54.0,63,29.97,10.0,NNE,5.8,-,N/A,,Mostly Cloudy,20,2013-08-09 05:53:00
2:53 AM,66.0,55.9,70,29.97,10.0,NNW,4.6,-,N/A,,Scattered Clouds,330,2013-08-09 06:53:00
3:53 AM,64.9,55.0,70,29.96,10.0,North,3.5,-,N/A,,Scattered Clouds,350,2013-08-09 07:53:00
4:53 AM,64.0,55.9,75,29.96,10.0,WNW,3.5,-,N/A,,Scattered Clouds,300,2013-08-09 08:53:00
5:53 AM,64.0,55.9,75,29.96,10.0,Calm,Calm,-,N/A,,Clear,0,2013-08-09 09:53:00
6:53 AM,63.0,55.0,75,29.97,10.0,Calm,Calm,-,N/A,,Clear,0,2013-08-09 10:53:00
7:53 AM,66.0,55.9,70,29.98,10.0,Calm,Calm,-,N/A,,Clear,0,2013-08-09 11:53:00
8:53 AM,66.9,53.1,61,29.98,10.0,North,4.6,-,N/A,,Clear,360,2013-08-09 12:53:00
9:53 AM,73.0,55.0,53,29.98,10.0,North,5.8,-,N/A,,Clear,360,2013-08-09 13:53:00
10:53 AM,75.9,52.0,43,29.98,10.0,North,4.6,-,N/A,,Clear,350,2013-08-09 14:53:00
11:53 AM,78.1,53.1,42,29.99,10.0,NNE,4.6,-,N/A,,Clear,20,2013-08-09 15:53:00
12:53 PM,79.0,54.0,42,29.98,10.0,NW,6.9,-,N/A,,Clear,320,2013-08-09 16:53:00
1:53 PM,81.0,52.0,36,29.97,10.0,NW,5.8,-,N/A,,Clear,310,2013-08-09 17:53:00
2:53 PM,82.0,55.0,39,29.97,10.0,Variable,5.8,18.4,N/A,,Partly Cloudy,0,2013-08-09 18:53:00
3:53 PM,81.0,52.0,36,29.96,10.0,West,11.5,-,N/A,,Clear,260,2013-08-09 19:53:00
4:53 PM,82.9,55.0,38,29.95,10.0,WSW,6.9,-,N/A,,Clear,240,2013-08-09 20:53:00
5:53 PM,82.0,53.1,37,29.95,10.0,West,9.2,-,N/A,,Clear,280,2013-08-09 21:53:00
6:53 PM,80.1,57.9,47,29.95,10.0,NW,8.1,-,N/A,,Clear,310,2013-08-09 22:53:00
7:53 PM,79.0,59.0,50,29.95,10.0,West,10.4,-,N/A,,Clear,270,2013-08-09 23:53:00
8:53 PM,77.0,57.9,52,29.97,10.0,West,8.1,-,N/A,,Clear,270,2013-08-10 00:53:00
9:53 PM,72.0,60.1,66,29.99,10.0,WSW,5.8,-,N/A,,Clear,240,2013-08-10 01:53:00
10:53 PM,71.1,60.1,68,30.00,10.0,WSW,5.8,-,N/A,,Clear,250,2013-08-10 02:53:00
11:53 PM,72.0,60.1,66,30.01,10.0,WNW,6.9,-,N/A,,Clear,290,2013-08-10 03:53:00